Skip Navigation Links
NOAA logo - Click to go to the NOAA homepage
NOAA's National Weather Service
Alaska Aviation Weather Unit
  NWS logo - Click to go to the NWS homepage
Left Navbar Graphic     03 AKDT = 11 GMT

   
NOAA is celebrating 200 years of science, service, and stewardship. Visit the NOAA 200th celebration Web site to learn more.
USA.gov is the U.S. Government's official Web portal to all Federal, state and local government Web resources and services.
Facebook
NWS on Facebook

Important Change Regarding the AAWU Web Presence

 

Over the last several months, the AAWU has been working to navigate its webpages to a nationally supported server. Security, as well as other needs, have necessitated the change.  We have been given an extension for the site changeover while we diligently work at addressing feedback received. As of July 14, 2017, aawu.arh.noaa.gov will be discontinued. The new AAWU web address is weather.gov/aawu. It is now live and will run in-parallel with the old site until it is discontinued on July 14, 2017. Please continue to send any feedback or questions regarding the new webpages to nws.ar.aawu.webauthors@noaa.gov.  Thank you for your patience during this time of transition.
AAWU Home :: Display TAF Add Bookmark
METAR PAIM 230555Z AUTO VRB06KT 10SM FEW015 BKN027 BKN060 07/06
     A2968=

PAIM 230615Z AUTO 28007KT 240V320 10SM BKN031 07/05 A2968=

PAIM 230635Z AUTO 29007KT 260V350 10SM SCT011 BKN034 BKN075 07/05
A2969=

METAR PAIM 230655Z AUTO VRB04KT 10SM SCT011 BKN035 BKN075 07/05
     A2969=

METAR PAIM 230755Z AUTO VRB03KT 10SM BKN016 BKN060 07/05 A2969=

PAIM 230835Z AUTO VRB03KT 10SM FEW015 SCT021 BKN055 BKN200 07/04
A2969=

METAR PAIM 230855Z AUTO 29003KT 10SM SCT021 SCT060 BKN190 07/04
     A2969=

METAR PAIM 230955Z AUTO 26004KT 10SM OVC033 06/04 A2969=

METAR PAIM 231055Z AUTO 24007KT 10SM BKN035 06/05 A2970=

PAIM 231135Z AUTO 26005KT 10SM BKN029 BKN190 06/04 A2969=


NOAA's National Weather Service
Alaska Aviation Weather Unit
6930 Sand Lake Road
Anchorage, AK 99502-1845
Disclaimer
Credits
Glossary
Privacy Policy
About Us
Career Opportunities
Contact AAWU Internet Services Site last modified: April, 17th 2012